Simultaneous Nadir Overpasses (SNOs) Predictions

Prediction of SNOs between LANDSAT-8 and NOAA-19 Satellite Orbit:

Table of predicted SNOs for the next 14.0 days since TLE Epoch: 8/18/2017
Index Date (LANDSAT-8) Time (LANDSAT-8) Lat,Lon (LANDSAT-8) SZA (LANDSAT-8 ) Date (NOAA-19) Time (NOAA-19) Lat,Lon (NOAA-19) SZA (NOAA-19 ) Distance(km) Time Diff (sec)
1 08/19/2017 16:43:32 76.51, -60.98 64.07 08/19/2017 16:42:33 76.49, -60.97 64.05 2.11 59
2 08/19/2017 17:33:01 -76.44, 106.40 116.01 08/19/2017 17:33:31 -76.46, 106.41 115.97 2.83 30
3 08/21/2017 22:17:18 -76.49, 35.51 115.21 08/21/2017 22:16:18 -76.49, 35.66 115.21 3.97 60
4 08/21/2017 23:06:44 76.47,-156.91 64.78 08/21/2017 23:07:19 76.44,-156.90 64.76 3.14 35
5 08/24/2017 03:51:01 76.52, 132.18 65.59 08/24/2017 03:50:06 76.51, 132.22 65.57 1.92 55
6 08/24/2017 04:40:30 -76.45, -60.42 114.48 08/24/2017 04:41:05 -76.46, -60.35 114.46 2.32 35
7 08/26/2017 09:24:46 -76.55,-131.17 113.61 08/26/2017 09:23:53 -76.55,-131.31 113.62 3.66 53
8 08/26/2017 10:14:13 76.48, 36.23 66.33 08/26/2017 10:14:52 76.47, 36.26 66.33 1.37 39
9 08/28/2017 14:58:30 76.52, -34.69 67.16 08/28/2017 14:57:39 76.54, -34.65 67.16 2.01 51
10 08/28/2017 15:47:58 -76.50, 132.89 112.86 08/28/2017 15:48:39 -76.48, 132.82 112.87 3.03 41
11 08/30/2017 20:32:15 -76.55, 61.97 112.02 08/30/2017 20:31:26 -76.53, 62.00 112.04 2.37 49




NCC Satellite Simultaneous Nadir Overpasses (SNOs) Prediction Service
